Regional Weather Roundup
Issued by NWS

Home | Current Version | Previous Version | Graphics & Text | Print | Product List | Glossary On
Versions: 1 2 3 4 5 6 7 8 9 10 11 12 13 14 15 16 17 18 19 20 21 22 23 24 25 26 27 28 29 30 31 32 33 34 35 36 37 38 39 40 41 42 43 44 45 46 47 48 49 50
000
ASUS43 KDMX 310907
RWRIA

WEATHER ROUNDUP FOR IOWA
NATIONAL WEATHER SERVICE DES MOINES IA
400 AM CDT FRI JUL 31 2015

NOTE: "FAIR" INDICATES FEW OR NO CLOUDS BELOW 12,000 FEET WITH NO
SIGNIFICANT WEATHER AND/OR OBSTRUCTIONS TO VISIBILITY.

* - THESE STATIONS ARE NOT NWS STATIONS...THUS NOT UNDER NWS
QUALITY CONTROL.  THEY ALSO DO NOT REPORT WEATHER SUCH
AS PRECIPITATION OR FOG.

IAZ001>003-012>014-020>022-031>034-043>046-311000-
   NORTHWEST IOWA

CITY           SKY/WX    TMP DP  RH WIND       PRES   REMARKS
CARROLL *      CLEAR     68  64  88 SW8       30.11S
CHEROKEE *     CLEAR     64  64 100 CALM      30.13S
DENISON *      CLEAR     66  66 100 SW3       30.12R
LE MARS *      CLEAR     64  64 100 N12       30.14R
ORANGE CITY *  CLEAR     64  63  94 CALM      30.14S
SHELDON *      PTCLDY    59  59 100 CALM      30.13S
SIOUX CITY     PTCLDY    69  62  78 CALM      30.12F
SPENCER        PTCLDY    62  58  86 SW3       30.13S
STORM LAKE *   CLEAR     66  63  88 W7        30.14R
$$

IAZ055>058-069>071-079>083-090>094-311000-
   SOUTHWEST IOWA

CITY           SKY/WX    TMP DP  RH WIND       PRES   REMARKS
ATLANTIC *     MOCLDY    68  68 100 W5        30.15R
AUDUBON *      CLEAR     66  63  88 CALM      30.15S
CLARINDA *     PTCLDY    66  66 100 S8        30.15F
COUNCIL BLFS * PTCLDY    68  64  88 N3        30.17R
CRESTON *      CLOUDY    68  64  88 SW5       30.17S
HARLAN  *      MOCLDY    70  70 100 SW5       30.17S
LAMONI         MOCLDY    70  63  78 SW8       30.15S
RED OAK *      MOCLDY    68  66  94 CALM      30.15S
SHENANDOAH *   MOCLDY    68  64  88 CALM      30.15F
$$

IAZ047>049-059>061-072>074-084-311000-
   CENTRAL IOWA

CITY           SKY/WX    TMP DP  RH WIND       PRES   REMARKS
AMES           CLEAR     64  62  93 CALM      30.10S
ANKENY *       CLEAR     64  64 100 CALM      30.10S
CHARITON *     CLEAR     68  64  88 W6        30.13S
DES MOINES     PTCLDY    71  64  78 W5        30.10F
GRINNELL*      CLEAR     66  63  88 SW7       30.10F
KNOXVILLE *    CLEAR     68  64  88 SW8       30.10F
MARSHALLTOWN   CLEAR     65  62  90 W6        30.08F
PELLA *        CLEAR     68  68 100 SW5       30.11F
PERRY *          N/A     66  64  94 CALM      30.11S
$$

IAZ004>006-015-016-023>025-035-036-311000-
   NORTH CENTRAL IOWA

CITY           SKY/WX    TMP DP  RH WIND       PRES   REMARKS
ALGONA *       CLEAR     66  63  88 NW7       30.12R
CLARION *      CLEAR     61  59  94 CALM      30.11R
ESTHERVILLE    CLEAR     62  59  90 NW8       30.12S
FORT DODGE *   CLEAR     64  59  82 SW5       30.12R
MASON CITY     CLEAR     65  63  93 W6        30.10F
FOREST CITY *  CLEAR     63  63 100 W3        30.10S
IOWA FALLS *     N/A     64  63  94 W5        30.10F
$$

IAZ007>011-017>019-026>030-037>042-050>054-066-311000-
   NORTHEAST IOWA

CITY           SKY/WX    TMP DP  RH WIND       PRES   REMARKS
CEDAR RAPIDS   CLEAR     65  64  97 W5        30.07F
CHARLES CITY * CLEAR     66  66 100 W7        30.08S
CLINTON *      CLEAR     63  63 100 W7        30.09S
DECORAH *      PTCLDY    66  63  88 CALM      30.05S
DUBUQUE        CLEAR     63  61  93 SW5       30.05F
MONTICELLO *   CLEAR     63  63 100 CALM      30.06F
OELWEIN *        N/A     66  64  94 W5        30.07S
WATERLOO       CLEAR     68  65  90 W7        30.05F
$$

IAZ064-065-067-068-078-311000-
   EAST CENTRAL IOWA

CITY           SKY/WX    TMP DP  RH WIND       PRES   REMARKS
DAVENPORT      CLEAR     66  63  90 W5        30.08F
IOWA CITY      CLEAR     67  63  87 W3        30.08F
MT. PLEASANT * CLEAR     66  63  88 W5        30.11S
MUSCATINE *    CLEAR     70  64  83 W3        30.08F
QUAD CITIES    CLEAR     67  63  87 SW3       30.07F
$$

IAZ062-063-075>077-085>089-095>099-311000-
   SOUTHEAST IOWA

CITY           SKY/WX    TMP DP  RH WIND       PRES   REMARKS
BURLINGTON     CLEAR     69  65  86 W3        30.10S
FAIRFIELD *    CLEAR     66  63  88 SW5       30.11S
FORT MADISON * CLEAR     68  64  88 W5        30.12S
KEOKUK *       CLEAR     68  64  88 W5        30.10F
OSKALOOSA *      N/A     64  63  94 CALM      30.11F
CENTERVILLE *  PTCLDY    66  63  88 W6        30.15S
OTTUMWA        CLEAR     66  64  93 W6        30.09F
WASHINGTON *   CLEAR     66  64  94 W6        30.11F
$$

ABBREVIATIONS USED IN REMARKS
   TC - TEMPERATURES IN CELSIUS
  WCI - WIND CHILL INDEX
   HX - HEAT INDEX
  VSB - VISIBILITY
$$



USA.gov is the U.S. government's official web portal to all federal, state and local government web resources and services.